Brookings, OR

4:46 AM PDT on July 22, 2017 (GMT -0700)
Brookings State

Weather History for KBOK - September, 2013

Change the Weather History Date:

Monday, September 9, 2013

  Actual Average Record
Temperature  
Mean Temperature 89 °F -  
Max Temperature 99 °F 69 °F 103 °F (1973)
Min Temperature 70 °F 52 °F 43 °F (1964)
Cooling Degree Days 24    
Growing Degree Days 39 (Base 50)    
Moisture  
Dew Point 50 °F    
Average Humidity 29    
Maximum Humidity 55    
Minimum Humidity 12    
Precipitation  
Precipitation 0.00 in - - ()
Sea Level Pressure  
Sea Level Pressure 29.80 in    
Wind  
Wind Speed 7 mph (NNE)    
Max Wind Speed 14 mph    
Max Gust Speed 25 mph    
Visibility 10 miles    
Events      
Averages and records for this station are not official NWS values.
T = Trace of Precipitation, MM = Missing Value Source: NWS Daily Summary

Daily Weather History Graph

Daily Weather History Graph

Search for Another Location

Airport or City:

Trip Planner

Search our weather history database for the weather conditions in past years. The results will help you decide how hot, cold, wet, or windy it might be!

Date:

Astronomy

Sep. 09, 2013 Rise Set
Actual Time 6:51 AM PDT 7:36 PM PDT
Civil Twilight 6:23 AM PDT 8:04 PM PDT
Nautical Twilight 5:49 AM PDT 8:38 PM PDT
Astronomical Twilight 5:14 AM PDT 9:12 PM PDT
Moon 11:24 AM PDT (9/9) 9:51 PM PDT (9/9)
Length of Visible Light 13h 41m
Length of Day
12h 45m
Waxing Crescent, 20% of the Moon is Illuminated
Sep 9
Waxing Crescent
Sep 12
First Quarter
Sep 19
Full
Sep 26
Last Quarter
Oct 4
New

Hourly Weather History & Observations

Time (PDT) Temp. Heat Index Dew Point Humidity Pressure Visibility Wind Dir Wind Speed Gust Speed Precip Events Conditions
12:56 AM 81.9 °F 81.1 °F 54.0 °F 38% 29.83 in 10.0 mi Variable 4.6 mph - N/A   Clear
1:56 AM 83.8 °F 82.8 °F 55.9 °F 38% 29.83 in 10.0 mi NE 10.4 mph 19.6 mph N/A   Clear
2:56 AM 82.9 °F 82.1 °F 55.9 °F 39% 29.83 in 10.0 mi NNE 8.1 mph - N/A   Clear
3:56 AM 79.9 °F - 56.8 °F 45% 29.83 in 10.0 mi Variable 3.5 mph - N/A   Clear
4:56 AM 81.9 °F 81.6 °F 56.8 °F 42% 29.84 in 10.0 mi Variable 6.9 mph - N/A   Clear
5:56 AM 81.9 °F 81.4 °F 55.9 °F 41% 29.83 in 10.0 mi NE 13.8 mph 25.3 mph N/A   Clear
6:56 AM 81.9 °F 81.4 °F 55.9 °F 41% 29.85 in 10.0 mi NE 12.7 mph 23.0 mph N/A   Clear
7:56 AM 81.9 °F 81.2 °F 54.9 °F 39% 29.86 in 10.0 mi Variable 4.6 mph - N/A   Clear
8:56 AM 83.8 °F 82.7 °F 54.9 °F 37% 29.86 in 10.0 mi Variable 4.6 mph - N/A   Clear
9:56 AM 86.9 °F 84.9 °F 54.0 °F 32% 29.86 in 10.0 mi Variable 4.6 mph - N/A   Clear
10:56 AM 90.9 °F - 52.0 °F 26% 29.85 in 10.0 mi Variable 6.9 mph - N/A   Clear
11:56 AM 93.9 °F - 48.9 °F 21% 29.83 in 10.0 mi NNE 9.2 mph - N/A   Clear
12:56 PM 95.9 °F - 46.9 °F 19% 29.81 in 10.0 mi NNE 11.5 mph 16.1 mph N/A   Clear
1:56 PM 97.9 °F - 45.0 °F 16% 29.79 in 10.0 mi NNE 10.4 mph - N/A   Clear
2:56 PM 99.0 °F - 41.9 °F 14% 29.77 in 10.0 mi NNE 10.4 mph - N/A   Clear
3:56 PM 99.9 °F - 37.9 °F 12% 29.75 in 10.0 mi NNE 8.1 mph - N/A   Clear
4:56 PM 99.9 °F - 38.8 °F 12% 29.73 in 10.0 mi Variable 3.5 mph - N/A   Clear
5:56 PM 97.9 °F - 43.0 °F 15% 29.73 in 10.0 mi North 5.8 mph - N/A   Clear
6:56 PM 95.9 °F - 43.0 °F 16% 29.72 in 10.0 mi Variable 5.8 mph - N/A   Clear
7:56 PM 91.9 °F - 46.9 °F 21% 29.73 in 10.0 mi North 6.9 mph - N/A   Clear
8:56 PM 90.9 °F - 47.8 °F 23% 29.74 in 10.0 mi NNE 9.2 mph 19.6 mph N/A   Clear
9:56 PM 88.0 °F - 48.9 °F 26% 29.75 in 10.0 mi NNE 9.2 mph - N/A   Clear
10:56 PM 86.9 °F - 47.8 °F 26% 29.75 in 10.0 mi NE 9.2 mph - N/A   Clear
11:56 PM 70.9 °F - 54.0 °F 55% 29.74 in 10.0 mi Variable 3.5 mph - N/A   Clear